EHI
1 1 2 3 3 2 1 1 2 3 3 2 3 3 2 1 1 4 7 13 16 15 13 9 5 4 3 2 1 2 3 5 4 2 0 0 0 0 0 0 0 0 0
3 3 4 3 3 2 2 2 3 5 4 3 3 3 3 1 2 4 8 12 14 14 12 10 8 6 4 3 2 3 4 5 4 2 0 0 0 1 1 1 1 1 1
8 7 5 4 3 3 2 3 4 5 4 3 3 3 3 3 3 4 6 7 9 10 12 12 11 9 6 4 4 5 5 4 4 2 1 0 0 1 2 2 2 2 2
12 11 8 5 4 4 3 3 4 4 4 4 3 4 4 4 3 3 3 4 5 7 11 14 14 12 8 6 6 7 6 5 4 2 1 0 0 1 1 3 3 3 3
13 12 10 8 6 5 4 4 4 4 4 4 4 4 6 7 6 4 2 3 4 6 8 13 15 13 10 8 7 8 9 8 6 3 1 0 0 0 1 2 2 2 2
14 12 11 10 7 6 5 5 5 5 5 4 3 4 6 9 9 7 4 3 5 6 8 12 14 13 11 11 10 10 11 11 9 6 4 1 0 0 1 1 1 1 1
14 13 12 10 9 8 8 7 6 5 4 3 3 3 5 8 9 8 7 5 6 10 11 14 15 14 13 12 11 10 11 12 10 8 5 2 0 0 0 0 0 0 0
16 15 13 12 11 12 12 10 9 7 5 4 4 4 4 5 6 6 9 9 10 12 13 14 17 17 16 14 11 9 9 11 11 8 5 2 0 0 0 0 0 0 0
18 18 17 15 13 14 13 13 12 11 8 6 7 6 5 5 4 6 8 9 10 10 9 8 12 16 18 17 12 8 9 10 10 8 4 1 0 0 0 0 0 0 0
22 22 22 19 17 15 14 14 14 13 11 10 10 9 8 7 6 5 6 7 7 7 5 4 6 11 16 16 12 9 9 9 8 6 3 1 1 1 0 0 0 0 0
27 26 26 26 23 20 18 17 16 16 15 14 13 11 10 10 9 8 7 7 6 5 5 5 5 7 11 12 10 8 7 7 6 4 3 1 1 1 0 0 0 0 0
32 30 29 30 27 23 21 21 21 21 20 17 15 14 13 12 11 10 10 9 7 5 6 7 7 6 8 9 8 7 6 4 3 3 2 1 1 1 0 0 0 0 0
35 34 31 28 25 21 21 23 24 23 22 19 17 16 16 15 13 12 13 12 9 7 6 6 7 7 7 7 6 6 5 2 1 1 1 0 0 0 0 0 0 0 0
35 35 31 26 23 20 19 21 23 22 21 20 18 16 17 18 17 15 13 11 10 8 5 4 5 6 7 7 4 3 4 2 0 0 0 0 0 0 0 0 0 0 0
33 33 31 27 24 21 20 20 21 20 19 18 16 14 15 18 19 16 12 11 11 10 7 4 4 5 8 7 3 2 3 1 0 0 0 0 0 0 0 0 0 0 0
33 32 29 26 23 21 20 21 20 19 17 15 14 13 14 15 17 16 14 13 14 12 9 6 4 5 7 6 3 3 2 1 0 0 0 0 0 0 0 0 0 0 0
34 31 27 24 21 20 19 20 20 18 15 13 12 11 11 13 15 16 16 15 13 11 9 7 5 5 6 6 4 4 2 1 1 0 0 0 0 0 0 0 0 0 0
33 30 26 24 22 20 18 18 19 17 14 11 10 9 9 11 13 14 14 13 11 9 9 8 5 4 5 6 5 4 2 2 1 0 0 0 0 0 0 0 0 0 0
32 29 27 26 24 21 19 17 17 16 14 12 10 8 8 9 11 11 10 10 9 7 7 8 5 3 4 5 5 3 1 1 1 0 0 0 0 0 0 0 0 0 0
29 29 28 26 23 20 18 16 15 15 15 13 11 10 9 9 9 9 8 8 7 6 6 6 5 3 3 4 4 2 0 0 0 0 0 0 0 0 0 0 0 0 0
28 29 30 27 22 17 15 13 13 13 12 10 9 9 9 9 9 8 7 6 6 5 5 4 3 3 2 2 2 0 0 0 0 0 0 0 0 0 0 0 0 0 0
28 30 32 30 23 15 10 9 10 11 9 7 7 6 6 7 7 6 5 4 3 4 3 2 1 1 1 1 0 0 0 0 0 0 0 0 0 0 0 0 0 0 0
29 31 33 32 24 14 6 5 6 8 7 6 5 4 3 3 3 5 4 2 2 2 2 1 1 1 1 1 1 0 0 0 0 0 0 0 0 0 0 0 0 0 0
28 29 31 31 24 13 5 3 3 5 7 6 5 4 3 2 2 3 3 2 2 2 2 2 2 2 1 1 1 0 0 0 0 0 0 0 0 0 0 0 0 0 0
27 27 29 29 23 13 5 2 1 3 5 6 6 6 6 4 1 1 1 2 2 2 2 2 2 1 0 0 0 0 0 0 0 0 0 0 0 0 0 0 0 0 0
28 28 27 26 21 12 5 1 1 2 4 5 7 9 7 4 1 0 1 2 2 1 1 2 1 0 0 0 0 0 0 0 0 0 0 0 0 0 0 0 0 0 0
Wind_Speed
1 2 1 1 1 2 2 1 1 2 1 1 1 1 1 1 4 5 5 11 11 10 10 10 9 8 8 7 7 7 7 7 7 6 6 6 6 6 5 5 6 5 5
1 1 1 0 0 1 1 2 2 2 1 1 1 1 1 1 3 5 6 7 10 10 9 9 9 8 8 8 8 8 8 8 7 7 6 6 6 6 6 6 6 6 5
1 0 1 1 0 1 1 1 1 1 1 1 1 1 1 1 2 3 5 5 6 8 9 8 8 8 8 8 8 8 9 9 8 8 7 7 7 7 7 7 6 6 6
1 0 0 1 1 0 1 1 1 1 1 1 1 1 1 1 3 2 3 4 5 5 8 9 8 8 8 9 9 9 9 9 9 9 8 8 7 7 7 8 7 6 6
1 1 1 1 1 0 1 1 1 1 1 0 1 1 1 1 2 3 3 4 4 5 5 8 9 8 8 8 8 9 9 9 9 9 9 9 8 8 7 7 7 7 7
2 1 1 1 1 1 1 0 0 1 1 1 2 1 1 2 2 2 3 2 3 5 5 6 6 6 7 6 6 7 9 10 9 9 9 9 8 8 7 7 7 7 7
1 1 0 1 1 1 1 1 1 1 1 2 1 1 1 2 2 1 1 1 2 3 4 5 4 4 3 5 5 5 7 8 9 8 8 8 8 8 8 7 7 7 7
1 2 1 1 1 1 1 1 1 1 2 2 1 1 0 0 0 1 1 1 1 2 3 3 3 3 2 2 1 3 5 6 7 7 7 7 7 7 7 7 7 6 6
1 0 1 1 1 1 1 1 1 2 2 2 2 2 1 1 0 1 0 1 1 2 2 2 3 3 3 2 2 2 3 3 4 5 5 5 5 6 6 7 7 6 5
1 1 1 1 0 1 0 1 1 1 2 2 2 1 1 2 2 1 0 1 1 1 1 1 2 3 3 3 4 5 4 3 2 2 2 3 3 4 5 5 5 5 4
2 1 1 1 1 1 0 1 1 1 1 1 2 1 1 1 2 2 1 1 1 1 1 2 2 3 4 4 3 4 5 4 3 3 2 2 2 3 4 4 4 3 3
2 2 2 1 0 0 0 1 1 1 1 1 1 1 1 1 1 1 2 2 1 1 2 2 2 2 3 3 4 6 7 6 5 4 5 4 4 4 3 3 3 2 2
2 2 1 1 0 0 0 1 1 1 1 1 1 2 2 2 1 1 2 2 1 1 2 2 2 2 3 3 4 8 8 8 7 7 7 7 7 6 6 6 6 6 6
2 2 2 1 0 0 0 0 1 1 1 1 2 1 2 1 1 1 1 2 2 1 1 2 2 2 3 3 4 6 6 9 8 8 8 8 8 9 8 8 8 8 8
2 2 2 2 1 0 1 1 0 1 1 0 1 1 1 2 1 1 1 2 2 2 1 2 1 2 3 4 5 3 4 7 8 8 8 8 8 8 8 8 9 8 8
2 1 1 1 1 1 1 0 0 1 1 1 1 1 1 1 1 1 0 1 1 2 1 1 2 2 3 4 6 4 4 8 8 8 7 7 7 8 8 8 8 8 7
1 1 1 1 1 1 1 0 0 0 1 1 1 1 1 1 1 1 1 0 1 2 3 2 1 3 3 4 4 3 4 4 4 7 7 7 7 7 7 8 7 7 7
1 1 1 1 1 1 1 1 0 1 1 1 1 1 1 1 1 1 1 1 1 2 3 4 2 2 3 4 4 4 4 4 4 7 7 7 7 7 8 7 7 6 6
2 2 1 2 1 2 1 1 1 1 1 1 1 1 1 1 1 1 1 1 1 2 2 4 3 2 2 3 3 3 4 3 4 6 7 7 7 8 8 7 7 6 6
2 2 2 2 2 2 1 1 1 1 1 1 1 1 2 2 2 1 1 1 1 2 2 3 4 3 2 2 3 2 2 2 3 4 5 6 7 8 7 7 6 6 5
3 2 2 2 1 2 1 2 0 1 1 1 1 2 3 4 5 3 2 2 2 1 2 2 3 3 2 2 2 2 2 2 2 3 3 4 5 4 4 5 5 5 5
2 2 1 1 2 3 4 5 3 1 1 1 1 1 3 4 5 5 5 5 3 2 1 2 2 2 2 2 2 2 2 2 2 2 3 3 4 4 4 3 6 7 6
3 2 2 2 3 4 5 5 4 1 1 1 1 1 1 3 3 2 3 4 4 4 3 2 2 2 2 2 2 2 1 2 1 2 2 2 2 3 4 5 9 9 8
3 2 2 3 4 3 3 3 4 0 1 1 1 1 2 3 2 2 2 3 3 2 2 2 2 1 2 1 1 2 2 1 1 1 2 1 2 2 3 4 9 10 9
3 3 3 3 3 2 1 2 2 1 1 2 2 2 2 3 3 3 2 2 2 2 3 4 4 3 3 2 1 0 1 1 2 2 1 1 1 1 2 3 6 11 10
3 3 3 3 3 3 1 1 1 1 1 2 2 3 3 2 2 1 1 2 2 1 1 2 3 2 2 3 3 2 1 1 1 1 2 1 1 2 1 2 4 5 6
Wind_Direction
109 115 110 148 179 159 159 161 146 139 128 129 152 137 94 108 123 132 140 155 159 163 167 170 173 177 178 179 184 185 184 180 177 180 185 188 192 195 203 208 209 210 206
89 99 134 175 39 118 128 146 147 144 134 115 131 138 126 106 107 134 142 159 168 172 175 178 181 182 186 188 191 191 189 188 186 189 194 198 201 202 208 217 216 218 215
86 90 146 165 185 133 105 92 108 129 151 163 151 152 137 132 127 142 148 159 171 182 181 183 187 190 194 197 198 199 199 199 199 199 202 207 210 209 215 223 226 224 224
119 15 184 151 145 184 126 137 173 131 144 149 156 204 170 141 161 169 167 168 171 180 188 193 194 197 204 209 209 208 207 206 206 206 208 213 216 218 222 223 223 225 225
150 193 165 116 185 197 152 210 135 156 175 162 188 204 192 172 172 187 187 184 175 172 171 185 195 200 207 213 216 218 215 211 208 210 214 217 219 220 219 219 221 224 226
163 205 156 147 206 191 188 152 111 211 183 199 244 214 210 198 183 187 192 189 173 176 173 171 183 198 204 209 216 221 221 215 209 211 215 218 219 217 217 219 223 226 228
139 164 339 157 203 212 196 196 191 211 219 189 219 258 251 215 188 169 181 176 171 163 149 157 173 173 182 200 219 218 216 212 210 210 214 217 219 218 216 216 220 226 230
185 183 190 228 210 190 199 224 217 224 246 209 191 188 205 302 340 180 159 163 151 122 126 140 132 133 145 161 182 198 199 205 213 211 212 213 218 217 216 215 216 217 217
190 163 160 200 247 191 197 210 230 239 241 252 218 196 193 197 108 23 135 140 134 118 123 123 132 147 152 121 124 168 166 181 198 207 211 211 213 214 215 215 211 212 217
166 141 144 157 235 233 214 248 209 259 250 267 276 261 236 166 166 178 21 42 89 91 76 93 102 113 109 106 97 94 111 115 129 171 197 198 198 204 202 198 195 195 196
147 123 123 146 206 218 223 274 301 284 273 274 282 284 278 228 194 172 186 180 89 84 95 90 79 79 82 89 98 98 103 109 108 104 108 125 137 155 169 173 187 194 191
142 127 126 136 155 228 240 262 271 267 262 265 279 289 271 257 217 187 180 176 164 131 97 91 95 97 95 88 92 96 103 102 103 98 94 95 102 104 114 133 143 138 128
126 120 120 129 179 213 190 282 256 269 266 271 261 272 278 263 248 203 180 166 154 137 110 87 86 99 100 93 90 94 95 98 98 97 94 90 90 92 91 94 92 88 86
117 125 131 141 151 309 301 293 288 280 265 272 268 274 294 301 291 209 185 155 148 137 109 109 75 80 89 89 90 99 99 100 99 98 96 94 91 89 87 88 86 82 79
133 129 136 143 153 187 296 319 351 327 346 306 305 301 288 300 313 266 176 172 163 165 163 133 112 96 101 101 105 95 94 105 108 107 104 101 98 94 90 89 86 84 78
92 109 112 126 139 136 86 74 43 342 18 7 2 27 342 319 323 317 215 185 161 155 154 143 136 142 125 117 119 116 111 110 108 111 110 109 106 101 97 93 89 85 82
130 134 138 122 102 73 66 95 140 28 50 39 12 19 348 341 346 346 1 82 134 131 139 135 118 123 123 130 135 145 136 124 115 119 123 120 115 111 105 100 93 87 86
140 127 141 126 125 99 73 46 34 66 57 46 10 1 1 8 6 8 32 70 98 125 145 146 142 148 150 152 161 164 142 132 120 129 134 132 127 119 112 106 100 94 91
128 119 121 117 107 100 97 85 96 86 79 55 21 27 29 19 11 36 61 84 124 128 128 145 151 151 157 164 159 149 128 132 136 139 139 140 137 130 123 118 114 110 106
138 133 123 116 112 107 93 96 117 114 118 99 62 54 48 43 32 20 75 70 102 115 137 146 144 151 153 161 147 155 146 154 148 155 143 140 142 139 136 134 131 125 120
136 131 135 138 127 110 50 16 326 129 119 110 91 83 83 78 67 56 70 72 88 108 138 141 146 146 152 159 177 187 167 169 166 147 150 159 154 154 156 158 157 153 146
119 121 117 92 78 69 48 39 26 63 70 80 86 94 122 109 97 83 76 78 89 121 129 129 149 160 161 168 176 192 165 170 183 169 166 174 163 167 173 169 172 170 170
125 120 113 99 88 67 44 33 25 20 86 64 61 49 74 92 98 92 100 101 81 81 102 133 155 164 153 158 163 180 184 191 192 169 159 178 168 172 170 169 171 172 175
141 128 121 113 107 89 46 24 359 340 108 100 89 68 71 90 63 58 99 103 98 71 76 118 116 103 114 121 155 186 182 153 150 150 143 176 181 174 152 154 175 177 182
144 147 144 130 121 111 55 14 358 262 140 118 108 85 84 93 56 59 106 112 108 113 90 92 98 104 108 117 121 122 174 182 198 182 159 168 176 160 154 164 184 188 193
159 156 143 138 139 134 136 30 343 234 160 141 120 110 88 100 99 70 150 144 134 128 120 128 129 147 170 186 201 205 209 222 206 181 163 165 187 167 178 181 177 186 203